Location: A�t �Alizem
(31.2076°N, 8.7872°W)
Time: 17:36:54
(UTC+00:00)

deb Explorer IX - Pass Details

Date: 27 June 2021
Orbit: 541 x 1234 km, 38.9° (Epoch: 03 August)

Event Time Altitude Azimuth Distance (km) Brightness Sun altitude
Exits shadow 00:23:22 13° 59° (ENE) 2,104 ? -35.4°
Drops below altitude 10° 00:24:02 10° 62° (ENE) 2,332 ? -35.4°
Sets 00:26:59 0° 71° (ENE) 3,393 ? -35.4°
